Regional Weather Roundup
Issued by NWS

Home | Current Version | Previous Version | Text Only | Print | Product List | Glossary Off
Versions: 1 2 3 4 5 6 7 8 9 10 11 12 13 14 15 16 17 18 19 20 21 22 23 24 25 26 27 28 29 30 31 32 33 34 35 36 37 38 39 40 41 42 43 44 45 46 47 48 49 50

000
ASUS45 KTFX 221404
RWRMT
MONTANA HOURLY WEATHER ROUNDUP
NATIONAL WEATHER SERVICE GREAT FALLS MT
804 AM MDT FRI AUG 22 2014

NOTE: "FAIR" INDICATES FEW OR NO CLOUDS BELOW 12000 FEET WITH NO
SIGNIFICANT WEATHER AND/OR OBSTRUCTIONS TO VISIBILITY.

* THESE STATIONS ARE NOT UNDER NWS QUALITY CONTROL. THEY DO NOT
   REPORT WEATHER SUCH AS PRECIPITATION OR FOG.

MTZ001>007-043-221500-
WEST OF THE DIVIDE
CITY           SKY/WX    TMP DP  RH WIND       PRES   REMARKS
KALISPELL      CLOUDY    57  45  64 NE14G22   30.06R
MISSOULA       CLOUDY    54  52  93 CALM      30.05F
BUTTE          CLOUDY    48  45  89 S7        30.12S
MULLAN PASS    CLOUDY    45  41  86 SE7       30.06F
* ESSEX        N/A       52  44  74 S3         N/A
* LINCOLN      N/A       51  47  86 E7G14      N/A
* LOOKOUT PASS N/A       49  46  89 SE2G7      N/A
* POLSON       N/A       54  49  83 N/A        N/A
* RONAN APT    CLOUDY    55  52  90 N/A        N/A
* SEELEY LAKE  N/A       48  47  96 N/A        N/A
* THOMP F APT  PTSUNNY   48  42  80 N6         N/A
$$

MTZ008-052>055-221500-
SOUTHWEST MONTANA
CITY           SKY/WX    TMP DP  RH WIND       PRES   REMARKS
BOZEMAN        CLOUDY    52  48  86 N6        30.10S
DILLON         CLOUDY    50  48  93 NE3       30.10R
W YELLOWSTONE  FOG       45  45 100 CALM      30.16S VSB 1 3/4
* THREE FORKS  CLOUDY    52  32  47 N/A        N/A
* BOULDER HILL N/A       47  43  86 VRB2       N/A
* MONIDA PASS  N/A       43  43 100 N/A        N/A
* RAYNOLDS PAS N/A       43   5  21 NE1        N/A
* WHITEHALL    N/A       50  49  96 NE4        N/A
* WISE RIVER   N/A       45  43  93 E2         N/A
$$

MTZ009>010-012-014-046-048-049-054-221500-
EAST SLOPES AND CENTRAL MONTANA
CITY           SKY/WX    TMP DP  RH WIND       PRES   REMARKS
CUT BANK       CLOUDY    52  48  86 N9        30.17S
GREAT FALLS    LGT RAIN  52  52 100 NE10      30.12F VSB 1/2
HELENA         FOG       54  50  86 NW6       30.11R
MALMSTROM AFB  RAIN      52  52 100 NE8       30.14S VSB 2
* CONRAD       CLOUDY    52  52 100 NW5        N/A
* DEARBORN     N/A       52  50  93 VRB7       N/A
* EAST GLACIER N/A       46  44  93 NE8        N/A
* MONARCH      N/A       48  45  89 NW4        N/A
* PENDROY      N/A       49  48  96 N9         N/A
* ROGERS PASS  N/A       46  46 100 SE2        N/A
* SAINT MARY   N/A       47  47 100 NE2        N/A
* SWEET GRASS  N/A       50  50 100 NE12       N/A
$$

MTZ011-013-016-021-035-040-045-047-050-051-221500-
NORTH CENTRAL MONTANA
CITY           SKY/WX    TMP DP  RH WIND       PRES   REMARKS
HAVRE          CLOUDY    57  54  90 CALM      30.11S
LEWISTOWN      LGT RAIN  54  52  93 CALM      30.13S
* CHESTER      N/A       52  50  93 NE6G11     N/A
* DENTON       N/A       53  52  96 N6         N/A
* GEYSER       N/A       51  50  96 NE3        N/A
* JUDITH GAP   N/A       51  51 100 VRB6       N/A
* LOMA         N/A       55  53  93 NW6        N/A
$$

MTZ017>020-022>027-061-062-221500-
NORTHEAST MONTANA
CITY           SKY/WX    TMP DP  RH WIND       PRES   REMARKS
GLASGOW        CLOUDY    59  57  93 NE12      30.10R
GLENDIVE       CLOUDY    61  61 100 NE8       30.09R VSB 3
JORDAN         CLOUDY    61  57  87 NE3       30.09S
SIDNEY         CLOUDY    63  59  87 NE8       30.09S
WOLF POINT     LGT RAIN  61  57  87 NE12      30.10S
* BEAVER HILL  N/A       60  60 100 N/A        N/A
* CIRCLE       N/A       60  59  97 NE7        N/A
* LINDSAY DVD  N/A       59  59 100 NE9        N/A
* SACO         N/A       59  56  90 NE7        N/A
$$

MTZ028>042-056>058-221500-
SOUTHCENTRAL AND SOUTHEAST MONTANA
CITY           SKY/WX    TMP DP  RH WIND       PRES   REMARKS
BAKER          CLOUDY    63  57  81 W3        30.09S
BILLINGS       CLOUDY    55  54  96 NE6       30.10S
LIVINGSTON     CLOUDY    54  50  86 SE5       30.10F
MILES CITY     CLOUDY    61  55  81 NW5       30.08S
* LAUREL APT   CLOUDY    55  52  90 N/A        N/A
* ROUNDUP APT  CLOUDY    55  52  90 N/A        N/A
* ALZADA       N/A       61  59  93 NW1        N/A
* HYSHAM       N/A       57  55  93 NE2        N/A
* LAME DEER    N/A       56  53  90 SE2        N/A
* REED POINT   N/A       56  55  96 N/A        N/A
* ROSCOE HILL  N/A       51  48  90 N1         N/A
$$

REGIONAL REPORTS...DAKOTAS
CITY           SKY/WX    TMP DP  RH WIND       PRES   REMARKS
WILLISTON      CLOUDY    61  55  81 N12       30.09S
DICKINSON      CLOUDY    63  61  93 CALM      30.06R
BEACH          FOG       59  59 100 NE3       30.09S VSB 2
CROSBY         PTSUNNY   57  57 100 N8        30.14R
TIOGA          CLOUDY    57  57 100 NE13      30.13S
WATFORD CITY   CLOUDY    61  57  87 NE10      30.06S
BISMARCK       CLOUDY    66  64  93 W5        30.04S
GRAND FORKS    CLOUDY    66  64  93 N14       29.96S
FARGO          FOG       68  68 100 N7        29.96S
BUFFALO SD     SUNNY     63  59  87 CALM      30.03R
RAPID CITY     FOG       63  61  93 NW8       30.09R
$$

REGIONAL REPORTS...WYOMING/IDAHO/WASHINGTON
CITY           SKY/WX    TMP DP  RH WIND       PRES   REMARKS
GILLETTE       PTSUNNY   61  55  81 VRB3      30.14R
SHERIDAN       CLOUDY    59  54  84 CALM      30.10F
CODY           CLOUDY    54  52  93 NE7       30.12F
YELLOWSTONE LA PTSUNNY   45  43  93 CALM      30.22F
SALMON         PTSUNNY   52  50  93 CALM      30.02S
MULLAN PASS    CLOUDY    45  41  86 SE7       30.06S
SAND POINT     PTCLDY    55  50  83 N15G22    29.99S
SPOKANE        TSTM      57  48  72 E7        29.97R

$$




USA.gov is the U.S. government's official web portal to all federal, state and local government web resources and services.